Weather History for LEVD - January, 2013

Change the Weather History Date:

Saturday, January 5, 2013

  Actual Average Record
Temperature  
Mean Temperature 40 °F -  
Max Temperature 55 °F - - ()
Min Temperature 26 °F - - ()
Degree Days  
Heating Degree Days 24    
Moisture  
Dew Point 38 °F    
Average Humidity 92    
Maximum Humidity 100    
Minimum Humidity 67    
Precipitation  
Precipitation 0.00 in - - ()
Sea Level Pressure  
Sea Level Pressure 30.53 in    
Wind  
Wind Speed 2 mph ()    
Max Wind Speed 9 mph    
Max Gust Speed -    
Visibility 2.3 miles    
Events Fog    
T = Trace of Precipitation, MM = Missing Value Source: Averaged Metar Reports

Daily Weather History Graph

Daily Weather History Graph

Search for Another Location

Airport or City:

Trip Planner

Search our weather history database for the weather conditions in past years. The results will help you decide how hot, cold, wet, or windy it might be!

Date:

Astronomy

Jan. 05, 2013 Rise Set
Actual Time 8:46 AM CET 6:03 PM CET
Civil Twilight 8:15 AM CET 6:34 PM CET
Nautical Twilight 7:40 AM CET 7:09 PM CET
Astronomical Twilight 7:06 AM CET 7:43 PM CET
Moon 1:34 AM CET (1/5) 12:47 PM CET (1/5)
Length of Visible Light 10h 19m
Length of Day
9h 16m
Waning Gibbous, 47% of the Moon is Illuminated
Jan 5
Waning Gibbous
Jan 11
New
Jan 19
First Quarter
Jan 27
Full
Feb 3
Last Quarter

Hourly Weather History & Observations

Time (CET) Temp. Windchill Dew Point Humidity Pressure Visibility Wind Dir Wind Speed Gust Speed Precip Events Conditions
6:00 AM 32.0 °F 26.4 °F 32.0 °F 100% 30.54 in - North 5.8 mph - N/A   Clear
6:30 AM 30.2 °F 25.4 °F 30.2 °F 100% 30.54 in - North 4.6 mph - N/A   Clear
7:00 AM 30.2 °F 26.7 °F 30.2 °F 100% 30.54 in 1.9 mi North 3.5 mph - N/A Fog Patches of Fog
8:00 AM 32.0 °F - 32.0 °F 100% 30.57 in 0.6 mi Variable 1.2 mph - N/A Fog Light Freezing Fog
8:30 AM 30.2 °F - 30.2 °F 100% 30.57 in 0.6 mi Calm Calm - N/A Fog Light Freezing Fog
9:00 AM 26.6 °F 22.6 °F 26.6 °F 100% 30.57 in 0.6 mi SSW 3.5 mph - N/A Fog Light Freezing Fog
9:30 AM 30.2 °F - 30.2 °F 100% 30.57 in 0.6 mi SSW 1.2 mph - N/A Fog Light Freezing Fog
10:00 AM 32.0 °F - 32.0 °F 100% 30.57 in 0.6 mi Calm Calm - N/A Fog Fog
10:30 AM 35.6 °F - 35.6 °F 100% 30.57 in 0.6 mi Variable 1.2 mph - N/A Fog Fog
11:00 AM 39.2 °F - 39.2 °F 100% 30.57 in 2.5 mi Calm Calm - N/A   Partly Cloudy
11:30 AM 42.8 °F - 41.0 °F 93% 30.57 in - Calm Calm - N/A   Clear
12:00 PM 41.0 °F - 39.2 °F 93% 30.57 in - Variable 2.3 mph - N/A   Clear
12:30 PM 44.6 °F - 41.0 °F 87% 30.57 in - Calm Calm - N/A   Clear
1:00 PM 46.4 °F - 42.8 °F 87% 30.57 in - Calm Calm - N/A   Clear
1:30 PM 50.0 °F - 42.8 °F 76% 30.54 in - Calm Calm - N/A   Clear
2:00 PM 53.6 °F - 44.6 °F 72% 30.54 in - Calm Calm - N/A   Clear
2:30 PM 51.8 °F - 44.6 °F 76% 30.51 in - Variable 1.2 mph - N/A   Clear
3:00 PM 53.6 °F - 46.4 °F 77% 30.51 in - Calm Calm - N/A   Clear
3:30 PM 51.8 °F - 44.6 °F 76% 30.51 in - Variable 2.3 mph - N/A   Clear
4:00 PM 53.6 °F - 46.4 °F 77% 30.51 in - Variable 1.2 mph - N/A   Clear
4:30 PM 55.4 °F - 46.4 °F 72% 30.51 in - Calm Calm - N/A   Clear
5:00 PM 55.4 °F - 44.6 °F 67% 30.51 in - Calm Calm - N/A   Clear
6:30 PM 41.0 °F 39.0 °F 39.2 °F 93% 30.51 in - SW 3.5 mph - N/A   Clear
7:00 PM 37.4 °F 34.9 °F 37.4 °F 100% 30.51 in 6.2 mi WSW 3.5 mph - N/A Fog Shallow Fog
7:30 PM 39.2 °F 35.0 °F 39.2 °F 100% 30.51 in 6.2 mi West 5.8 mph - N/A Fog Shallow Fog
8:00 PM 39.2 °F - 39.2 °F 100% 30.48 in - West 2.3 mph - N/A   Clear
9:00 PM 37.4 °F - 37.4 °F 100% 30.48 in 5.0 mi NW 1.2 mph - N/A   Unknown
9:30 PM 35.6 °F 31.7 °F 35.6 °F 100% 30.48 in - NNW 4.6 mph - N/A   Clear
10:00 PM 33.8 °F 27.0 °F 33.8 °F 100% 30.48 in - North 8.1 mph - N/A   Clear
10:30 PM 35.6 °F 28.6 °F 35.6 °F 100% 30.48 in - NNW 9.2 mph - N/A   Clear